SCP
0 0 -0 0 0 0 0 0 0 0 0 0 0 0 0 0 0 0 0 0 0 0 0 0 0 0 0 0 0 0 0 0 0 0 0 0 0 0 0 0 0 0 0
-0 0 -0 0 0 0 0 0 0 0 0 0 0 0 0 0 0 0 0 0 0 0 0 0 0 0 0 0 0 0 0 0 0 0 0 0 0 0 0 0 0 0 0
0 0 0 0 0 0 0 0 0 0 0 0 0 0 0 0 0 0 0 0 0 0 0 0 0 0 0 0 0 0 0 0 -0 -0 0 0 0 0 0 0 0 0 0
0 0 0 -0 0 0 0 0 0 0 0 0 0 0 0 0 0 0 0 0 0 0 0 0 0 0 0 0 0 0 0 0 0 0 0 0 0 0 0 0 0 0 0
-0 -0 -0 0 0 0 0 0 0 0 0 0 0 0 0 0 0 0 0 0 0 0 0 0 0 0 0 0 0 0 0 0 0 0 0 0 0 0 0 0 0 0 0
-0 -0 -0 0 0 0 0 0 0 0 0 0 0 0 0 0 0 0 0 0 0 0 0 0 0 0 0 0 0 0 0 0 0 0 0 0 0 0 0 0 0 0 0
0 0 0 0 0 0 0 0 0 0 0 0 0 0 0 0 0 0 0 0 0 0 0 0 0 0 0 0 0 0 0 0 0 0 0 0 0 0 -0 0 0 0 0
0 0 0 0 0 0 0 0 0 0 0 0 0 0 0 0 0 0 0 0 0 0 0 0 0 0 0 0 0 0 0 0 0 0 0 0 0 0 0 0 0 0 0
0 0 0 0 0 0 0 0 0 0 0 0 0 0 0 0 0 0 0 0 0 0 0 0 0 0 0 0 0 0 0 0 0 0 0 0 0 0 -0 0 0 0 0
0 0 0 0 0 0 0 0 0 0 0 0 0 0 0 0 0 0 0 0 0 0 0 0 0 0 1 0 0 0 0 0 0 0 0 0 0 -0 -0 -0 0 0 0
0 0 -0 0 0 0 0 0 0 0 0 0 0 0 0 0 0 0 -0 -0 0 0 0 0 1 1 0 0 0 0 0 0 0 0 0 0 0 0 -0 -0 -0 -0 0
0 -0 0 0 0 0 0 0 0 0 0 0 0 0 0 0 0 0 0 0 0 0 0 0 0 0 0 0 0 0 0 0 0 0 0 0 0 0 0 -0 -0 -0 -0
0 0 0 0 0 0 0 0 0 0 0 0 0 0 0 0 0 0 0 0 0 0 0 0 0 0 0 0 -0 0 0 0 0 0 0 0 0 0 0 -0 -0 -0 -0
0 0 0 0 0 0 0 0 0 0 0 0 0 0 0 0 0 0 0 0 0 0 0 0 0 0 0 0 0 0 0 0 0 0 0 0 0 0 0 0 0 0 0
0 0 0 0 0 0 0 0 0 0 0 0 0 0 0 0 0 0 0 0 0 0 0 0 0 0 0 0 0 0 0 0 0 0 0 0 0 0 0 0 0 0 0
0 -0 0 0 0 0 0 0 0 0 0 0 0 0 0 0 -0 -0 -0 0 0 0 0 0 0 0 0 0 0 0 0 0 0 0 0 0 0 0 0 0 0 0 0
-0 -0 -0 0 0 0 0 0 0 0 0 0 0 0 0 0 0 0 0 0 0 0 0 0 0 0 0 0 0 0 0 0 0 0 0 0 0 0 0 0 0 0 0
-0 -0 0 0 0 0 0 0 0 0 0 0 0 0 0 0 0 0 0 0 0 0 0 0 0 0 0 0 0 0 0 0 0 0 0 0 0 0 0 0 0 0 0
-0 -0 0 0 0 0 0 0 0 0 0 0 0 0 0 0 0 0 0 0 0 0 0 0 0 0 0 0 0 0 0 0 0 0 0 0 0 0 0 0 0 0 0
0 -0 -0 -0 -0 0 0 0 0 0 0 0 0 0 0 0 0 0 0 0 0 0 0 0 0 0 0 0 0 0 0 0 0 0 0 0 0 0 0 0 0 0 0
0 0 -0 -0 -0 -0 0 0 0 0 0 0 0 0 0 0 0 0 0 0 0 0 0 0 0 0 0 0 0 0 0 0 0 0 0 0 0 0 0 0 0 0 0
0 0 -0 -0 -0 0 0 0 0 0 0 0 0 0 0 0 0 0 0 0 0 0 0 0 0 0 0 0 0 0 0 0 0 0 0 0 0 0 0 0 0 0 0
0 0 0 0 0 0 0 0 0 0 0 0 0 0 0 0 0 0 0 0 0 0 0 0 0 0 0 0 0 0 0 0 0 0 0 0 0 0 0 0 0 0 0
0 0 0 0 0 0 0 0 0 0 0 0 0 0 0 0 0 0 0 0 0 0 0 0 0 0 0 0 0 0 0 0 0 0 0 0 0 0 0 0 0 0 0
0 0 0 0 0 0 0 0 0 0 0 0 0 0 0 0 0 0 0 0 0 0 0 0 0 0 0 0 0 0 0 0 0 0 0 0 0 0 0 0 0 0 0
0 0 0 0 0 0 0 0 0 0 0 0 0 0 0 0 0 0 0 0 0 0 0 0 0 0 0 0 0 0 0 0 0 0 0 0 0 0 0 0 0 0 0
Wind_Speed_500mb
23 17 14 10 6 6 7 7 6 5 5 5 5 5 5 4 4 6 8 11 14 16 17 18 20 21 22 23 20 12 7 10 12 11 10 9 8 9 10 10 4 4 6
24 18 13 9 4 3 3 1 1 3 4 4 4 5 5 4 3 3 2 3 6 8 10 11 12 14 18 20 20 17 10 9 11 10 10 10 8 5 4 6 7 1 2
22 16 14 10 6 4 2 2 5 7 9 11 12 14 15 14 12 11 10 8 6 4 4 3 4 6 10 14 17 16 6 3 3 5 12 12 10 4 2 3 4 3 0
17 14 10 7 5 5 7 10 14 16 17 18 18 20 21 22 23 21 19 17 15 13 10 8 5 2 2 5 10 13 12 6 7 9 7 14 11 5 7 6 6 4 2
17 14 10 8 8 12 14 15 17 19 20 25 27 28 28 29 28 29 26 24 24 22 20 17 15 11 7 3 6 9 10 8 0 11 8 8 4 4 6 8 10 9 7
16 11 7 5 6 8 13 16 18 23 24 27 34 35 32 32 34 33 32 31 30 29 28 26 23 20 16 12 7 8 7 6 7 7 6 6 7 6 4 7 12 12 11
14 9 5 6 8 11 14 16 18 24 27 31 39 37 35 40 36 33 33 33 35 35 36 34 32 30 26 20 14 12 11 12 15 16 14 10 9 8 10 8 11 12 10
7 5 8 8 10 18 18 17 16 21 27 34 34 35 37 38 35 34 33 33 33 36 35 36 36 38 36 30 24 18 18 19 18 25 22 15 8 6 11 8 10 16 16
12 10 16 15 12 17 19 18 15 19 23 27 29 32 33 32 36 31 30 31 31 33 33 42 38 40 41 40 36 29 25 26 19 17 20 18 9 2 7 8 7 12 16
18 18 21 18 13 18 15 16 15 17 20 25 31 32 33 33 32 31 32 34 37 44 44 44 40 41 42 46 45 39 34 32 20 20 24 24 16 8 2 6 10 8 13
24 27 18 17 15 11 7 15 16 18 25 28 32 34 33 33 36 37 43 43 43 49 47 53 50 44 55 52 51 46 41 43 30 24 27 34 25 15 10 14 15 14 11
20 23 26 24 21 15 11 15 12 20 27 31 32 40 32 30 32 31 38 47 49 46 45 45 47 51 35 54 43 38 42 46 43 30 26 40 34 22 11 9 14 13 13
23 22 25 23 22 20 20 20 19 23 22 26 33 34 40 30 29 32 38 35 36 37 38 33 39 34 42 44 35 37 47 47 55 41 29 38 39 23 11 10 13 15 16
28 27 26 30 32 27 25 24 20 17 17 22 28 28 26 26 27 32 40 43 45 43 37 35 29 29 34 31 34 36 40 48 60 43 35 40 39 34 26 16 10 15 15
18 33 39 36 34 32 30 30 30 25 16 15 17 23 28 32 37 41 43 44 41 41 37 35 30 21 38 38 38 39 38 43 43 34 26 41 45 40 29 25 23 19 17
28 38 39 36 31 29 27 23 19 16 12 12 17 23 30 38 47 51 50 44 38 32 25 23 27 25 31 35 36 28 33 31 32 47 39 43 41 43 34 36 29 18 24
43 45 46 45 38 32 27 16 13 10 15 15 20 25 31 38 40 41 44 47 36 26 24 19 21 21 25 25 32 39 34 32 48 44 56 44 47 54 60 61 57 54 45
41 46 46 43 47 32 20 10 6 5 9 14 20 24 30 33 42 45 44 38 34 27 24 27 30 27 25 24 26 26 30 38 40 39 50 45 50 44 48 58 55 47 42
37 44 48 55 59 30 9 7 4 11 17 21 19 17 26 29 37 43 37 34 29 29 26 23 22 26 27 28 26 25 21 23 26 24 25 20 21 23 28 29 32 31 25
35 42 51 60 60 37 12 7 10 14 15 11 10 13 21 30 38 37 35 35 33 33 31 27 23 20 22 26 29 29 22 18 15 17 20 21 20 24 29 31 27 25 23
31 37 44 51 52 41 23 17 14 15 16 14 11 15 22 30 32 30 32 34 32 31 32 31 27 22 19 23 18 11 11 13 6 7 11 16 21 27 27 25 23 23 22
23 29 36 46 47 45 30 18 15 13 11 11 15 17 22 26 31 32 33 34 34 34 32 29 29 27 21 24 22 14 10 8 9 7 9 6 7 14 18 20 18 19 22
15 24 30 41 45 44 28 17 12 15 15 11 16 20 24 27 32 35 34 33 33 32 34 31 26 27 25 19 16 10 7 5 17 11 9 9 9 13 17 18 19 19 24
9 18 25 36 37 40 26 22 20 22 21 21 21 22 26 30 33 37 37 32 31 34 29 29 28 26 26 25 17 12 11 14 7 9 13 12 14 13 15 20 21 21 21
5 13 20 30 31 34 25 21 22 21 22 21 22 25 31 36 37 42 38 34 33 34 31 27 25 23 25 25 23 22 20 21 21 20 24 16 12 14 17 20 21 23 23
2 7 17 25 25 28 27 15 19 24 23 24 27 29 35 41 42 43 39 37 32 32 32 29 26 25 24 24 24 24 24 25 21 18 18 23 22 16 17 20 22 25 28
Wind_Direction_500mb
160 148 126 129 138 144 137 131 124 111 107 122 145 143 132 111 104 99 104 106 103 100 97 91 83 73 62 56 58 60 100 139 150 145 130 123 89 90 80 54 75 90 89
143 136 130 137 147 147 148 136 35 0 345 324 286 261 254 250 246 233 194 140 122 114 112 102 82 70 59 50 46 55 91 134 155 164 170 167 147 111 66 52 50 13 157
140 125 137 145 144 159 176 311 332 329 322 313 303 297 289 281 273 264 256 249 235 203 173 143 99 85 74 43 32 35 41 153 189 230 212 199 172 126 49 354 350 24 176
106 101 105 98 72 34 8 358 351 344 333 325 314 302 291 284 279 275 270 266 264 261 256 256 259 263 106 61 18 17 352 285 270 189 179 192 185 296 293 280 258 266 211
121 125 102 63 34 9 353 353 353 339 336 330 319 308 297 289 281 276 271 269 269 270 272 273 276 278 288 302 344 4 3 328 302 164 157 181 238 299 299 281 260 242 239
129 113 86 49 6 338 339 339 337 338 333 330 325 312 300 294 286 277 273 269 268 269 270 271 271 275 277 278 297 311 340 314 223 192 201 214 249 280 311 292 241 237 230
133 106 57 9 327 322 325 327 320 337 332 328 327 319 307 303 292 288 284 279 274 273 275 277 277 274 271 271 270 292 294 297 250 231 223 242 259 286 325 283 227 215 226
87 25 360 329 304 324 323 312 321 330 331 335 334 330 324 317 305 295 291 289 287 287 285 280 276 277 276 272 268 277 278 282 268 237 223 228 226 309 326 290 235 220 223
72 349 341 335 312 317 302 311 310 320 332 339 338 333 327 324 315 304 294 292 287 287 280 276 274 275 269 272 269 269 272 274 264 224 227 219 218 226 338 332 267 235 219
47 42 19 5 327 323 307 314 305 317 322 330 332 333 331 329 323 315 308 304 296 298 286 280 280 265 257 250 254 262 267 266 256 241 233 222 216 201 214 343 1 314 252
57 48 27 23 14 10 333 322 321 314 313 321 332 328 324 324 322 303 293 294 299 301 294 281 275 273 277 261 253 249 253 252 242 240 234 215 214 209 232 276 316 320 317
62 31 25 14 15 4 325 320 314 310 313 320 316 316 318 313 318 306 308 309 309 311 300 288 275 271 278 259 261 246 259 254 250 244 232 209 215 210 212 263 293 323 318
46 33 20 16 1 347 341 340 343 342 337 337 335 312 323 318 326 313 318 329 336 336 326 296 279 278 257 248 246 248 226 244 248 240 223 212 211 203 215 267 272 283 297
32 20 1 352 342 339 336 338 359 2 3 346 340 331 354 343 346 343 335 335 332 334 330 314 291 269 232 246 260 261 248 250 246 242 215 213 212 208 208 209 222 256 271
26 5 355 350 346 341 335 335 343 346 357 10 7 338 336 345 350 343 336 328 327 318 318 320 304 269 235 259 265 264 263 258 240 230 211 215 211 213 217 234 254 257 255
23 11 2 356 352 344 346 347 10 354 19 9 4 358 349 345 340 338 337 333 322 317 319 313 301 296 268 267 274 251 260 241 235 237 237 246 243 225 228 237 241 260 277
26 18 17 19 13 5 6 8 63 56 350 354 7 357 351 347 348 352 359 359 360 336 316 318 314 302 284 281 267 252 259 254 253 240 230 247 245 248 244 247 260 266 270
26 27 30 21 14 14 30 67 86 17 11 9 7 11 4 9 7 358 353 358 6 357 332 312 302 308 306 295 288 290 277 268 258 248 240 254 253 250 250 251 258 258 258
29 31 25 20 19 24 50 91 21 4 3 2 8 17 12 2 1 358 6 8 3 357 349 342 323 311 305 301 296 290 296 286 269 257 239 242 247 229 243 234 230 238 250
36 34 24 17 22 38 46 66 40 12 15 34 53 22 3 358 353 2 7 7 2 357 355 354 351 345 328 312 295 283 275 303 280 256 245 242 241 242 237 235 232 242 256
38 32 25 22 27 29 42 41 34 43 45 47 34 6 350 351 357 3 357 353 354 350 346 348 353 354 352 354 352 328 238 214 235 233 228 229 240 251 251 222 218 235 245
33 39 35 26 25 25 30 50 47 38 39 30 4 354 359 8 13 6 359 353 348 344 339 335 343 354 1 1 9 15 8 215 195 202 200 211 201 201 198 211 225 235 254
39 43 36 26 23 24 38 51 57 64 61 52 36 20 19 16 9 1 1 359 359 356 355 353 343 349 353 358 357 12 328 316 321 228 179 203 211 217 224 229 247 264 266
50 47 30 23 28 28 41 56 55 46 47 43 38 29 21 15 8 5 3 4 8 8 8 8 3 354 345 340 335 309 294 281 295 293 233 238 271 258 245 249 257 260 262
60 37 19 22 33 31 40 56 45 46 54 51 40 31 24 18 14 16 20 21 18 15 13 10 4 358 350 344 335 322 298 280 275 270 287 282 271 287 278 268 270 273 273
270 13 11 24 34 32 32 49 44 43 44 36 33 27 21 20 18 19 18 17 18 14 11 6 360 346 337 335 331 317 303 297 289 270 276 289 302 298 280 277 275 279 281
Wind_Speed_850mb
23 17 14 10 6 6 7 7 6 5 5 5 5 5 5 4 4 6 8 11 14 16 17 18 20 21 22 23 20 12 7 10 12 11 10 9 8 9 10 10 4 4 6
24 18 13 9 4 3 3 1 1 3 4 4 4 5 5 4 3 3 2 3 6 8 10 11 12 14 18 20 20 17 10 9 11 10 10 10 8 5 4 6 7 1 2
22 16 14 10 6 4 2 2 5 7 9 11 12 14 15 14 12 11 10 8 6 4 4 3 4 6 10 14 17 16 6 3 3 5 12 12 10 4 2 3 4 3 0
17 14 10 7 5 5 7 10 14 16 17 18 18 20 21 22 23 21 19 17 15 13 10 8 5 2 2 5 10 13 12 6 7 9 7 14 11 5 7 6 6 4 2
17 14 10 8 8 12 14 15 17 19 20 25 27 28 28 29 28 29 26 24 24 22 20 17 15 11 7 3 6 9 10 8 0 11 8 8 4 4 6 8 10 9 7
16 11 7 5 6 8 13 16 18 23 24 27 34 35 32 32 34 33 32 31 30 29 28 26 23 20 16 12 7 8 7 6 7 7 6 6 7 6 4 7 12 12 11
14 9 5 6 8 11 14 16 18 24 27 31 39 37 35 40 36 33 33 33 35 35 36 34 32 30 26 20 14 12 11 12 15 16 14 10 9 8 10 8 11 12 10
7 5 8 8 10 18 18 17 16 21 27 34 34 35 37 38 35 34 33 33 33 36 35 36 36 38 36 30 24 18 18 19 18 25 22 15 8 6 11 8 10 16 16
12 10 16 15 12 17 19 18 15 19 23 27 29 32 33 32 36 31 30 31 31 33 33 42 38 40 41 40 36 29 25 26 19 17 20 18 9 2 7 8 7 12 16
18 18 21 18 13 18 15 16 15 17 20 25 31 32 33 33 32 31 32 34 37 44 44 44 40 41 42 46 45 39 34 32 20 20 24 24 16 8 2 6 10 8 13
24 27 18 17 15 11 7 15 16 18 25 28 32 34 33 33 36 37 43 43 43 49 47 53 50 44 55 52 51 46 41 43 30 24 27 34 25 15 10 14 15 14 11
20 23 26 24 21 15 11 15 12 20 27 31 32 40 32 30 32 31 38 47 49 46 45 45 47 51 35 54 43 38 42 46 43 30 26 40 34 22 11 9 14 13 13
23 22 25 23 22 20 20 20 19 23 22 26 33 34 40 30 29 32 38 35 36 37 38 33 39 34 42 44 35 37 47 47 55 41 29 38 39 23 11 10 13 15 16
28 27 26 30 32 27 25 24 20 17 17 22 28 28 26 26 27 32 40 43 45 43 37 35 29 29 34 31 34 36 40 48 60 43 35 40 39 34 26 16 10 15 15
18 33 39 36 34 32 30 30 30 25 16 15 17 23 28 32 37 41 43 44 41 41 37 35 30 21 38 38 38 39 38 43 43 34 26 41 45 40 29 25 23 19 17
28 38 39 36 31 29 27 23 19 16 12 12 17 23 30 38 47 51 50 44 38 32 25 23 27 25 31 35 36 28 33 31 32 47 39 43 41 43 34 36 29 18 24
43 45 46 45 38 32 27 16 13 10 15 15 20 25 31 38 40 41 44 47 36 26 24 19 21 21 25 25 32 39 34 32 48 44 56 44 47 54 60 61 57 54 45
41 46 46 43 47 32 20 10 6 5 9 14 20 24 30 33 42 45 44 38 34 27 24 27 30 27 25 24 26 26 30 38 40 39 50 45 50 44 48 58 55 47 42
37 44 48 55 59 30 9 7 4 11 17 21 19 17 26 29 37 43 37 34 29 29 26 23 22 26 27 28 26 25 21 23 26 24 25 20 21 23 28 29 32 31 25
35 42 51 60 60 37 12 7 10 14 15 11 10 13 21 30 38 37 35 35 33 33 31 27 23 20 22 26 29 29 22 18 15 17 20 21 20 24 29 31 27 25 23
31 37 44 51 52 41 23 17 14 15 16 14 11 15 22 30 32 30 32 34 32 31 32 31 27 22 19 23 18 11 11 13 6 7 11 16 21 27 27 25 23 23 22
23 29 36 46 47 45 30 18 15 13 11 11 15 17 22 26 31 32 33 34 34 34 32 29 29 27 21 24 22 14 10 8 9 7 9 6 7 14 18 20 18 19 22
15 24 30 41 45 44 28 17 12 15 15 11 16 20 24 27 32 35 34 33 33 32 34 31 26 27 25 19 16 10 7 5 17 11 9 9 9 13 17 18 19 19 24
9 18 25 36 37 40 26 22 20 22 21 21 21 22 26 30 33 37 37 32 31 34 29 29 28 26 26 25 17 12 11 14 7 9 13 12 14 13 15 20 21 21 21
5 13 20 30 31 34 25 21 22 21 22 21 22 25 31 36 37 42 38 34 33 34 31 27 25 23 25 25 23 22 20 21 21 20 24 16 12 14 17 20 21 23 23
2 7 17 25 25 28 27 15 19 24 23 24 27 29 35 41 42 43 39 37 32 32 32 29 26 25 24 24 24 24 24 25 21 18 18 23 22 16 17 20 22 25 28
Wind_Direction_850mb
160 148 126 129 138 144 137 131 124 111 107 122 145 143 132 111 104 99 104 106 103 100 97 91 83 73 62 56 58 60 100 139 150 145 130 123 89 90 80 54 75 90 89
143 136 130 137 147 147 148 136 35 0 345 324 286 261 254 250 246 233 194 140 122 114 112 102 82 70 59 50 46 55 91 134 155 164 170 167 147 111 66 52 50 13 157
140 125 137 145 144 159 176 311 332 329 322 313 303 297 289 281 273 264 256 249 235 203 173 143 99 85 74 43 32 35 41 153 189 230 212 199 172 126 49 354 350 24 176
106 101 105 98 72 34 8 358 351 344 333 325 314 302 291 284 279 275 270 266 264 261 256 256 259 263 106 61 18 17 352 285 270 189 179 192 185 296 293 280 258 266 211
121 125 102 63 34 9 353 353 353 339 336 330 319 308 297 289 281 276 271 269 269 270 272 273 276 278 288 302 344 4 3 328 302 164 157 181 238 299 299 281 260 242 239
129 113 86 49 6 338 339 339 337 338 333 330 325 312 300 294 286 277 273 269 268 269 270 271 271 275 277 278 297 311 340 314 223 192 201 214 249 280 311 292 241 237 230
133 106 57 9 327 322 325 327 320 337 332 328 327 319 307 303 292 288 284 279 274 273 275 277 277 274 271 271 270 292 294 297 250 231 223 242 259 286 325 283 227 215 226
87 25 360 329 304 324 323 312 321 330 331 335 334 330 324 317 305 295 291 289 287 287 285 280 276 277 276 272 268 277 278 282 268 237 223 228 226 309 326 290 235 220 223
72 349 341 335 312 317 302 311 310 320 332 339 338 333 327 324 315 304 294 292 287 287 280 276 274 275 269 272 269 269 272 274 264 224 227 219 218 226 338 332 267 235 219
47 42 19 5 327 323 307 314 305 317 322 330 332 333 331 329 323 315 308 304 296 298 286 280 280 265 257 250 254 262 267 266 256 241 233 222 216 201 214 343 1 314 252
57 48 27 23 14 10 333 322 321 314 313 321 332 328 324 324 322 303 293 294 299 301 294 281 275 273 277 261 253 249 253 252 242 240 234 215 214 209 232 276 316 320 317
62 31 25 14 15 4 325 320 314 310 313 320 316 316 318 313 318 306 308 309 309 311 300 288 275 271 278 259 261 246 259 254 250 244 232 209 215 210 212 263 293 323 318
46 33 20 16 1 347 341 340 343 342 337 337 335 312 323 318 326 313 318 329 336 336 326 296 279 278 257 248 246 248 226 244 248 240 223 212 211 203 215 267 272 283 297
32 20 1 352 342 339 336 338 359 2 3 346 340 331 354 343 346 343 335 335 332 334 330 314 291 269 232 246 260 261 248 250 246 242 215 213 212 208 208 209 222 256 271
26 5 355 350 346 341 335 335 343 346 357 10 7 338 336 345 350 343 336 328 327 318 318 320 304 269 235 259 265 264 263 258 240 230 211 215 211 213 217 234 254 257 255
23 11 2 356 352 344 346 347 10 354 19 9 4 358 349 345 340 338 337 333 322 317 319 313 301 296 268 267 274 251 260 241 235 237 237 246 243 225 228 237 241 260 277
26 18 17 19 13 5 6 8 63 56 350 354 7 357 351 347 348 352 359 359 360 336 316 318 314 302 284 281 267 252 259 254 253 240 230 247 245 248 244 247 260 266 270
26 27 30 21 14 14 30 67 86 17 11 9 7 11 4 9 7 358 353 358 6 357 332 312 302 308 306 295 288 290 277 268 258 248 240 254 253 250 250 251 258 258 258
29 31 25 20 19 24 50 91 21 4 3 2 8 17 12 2 1 358 6 8 3 357 349 342 323 311 305 301 296 290 296 286 269 257 239 242 247 229 243 234 230 238 250
36 34 24 17 22 38 46 66 40 12 15 34 53 22 3 358 353 2 7 7 2 357 355 354 351 345 328 312 295 283 275 303 280 256 245 242 241 242 237 235 232 242 256
38 32 25 22 27 29 42 41 34 43 45 47 34 6 350 351 357 3 357 353 354 350 346 348 353 354 352 354 352 328 238 214 235 233 228 229 240 251 251 222 218 235 245
33 39 35 26 25 25 30 50 47 38 39 30 4 354 359 8 13 6 359 353 348 344 339 335 343 354 1 1 9 15 8 215 195 202 200 211 201 201 198 211 225 235 254
39 43 36 26 23 24 38 51 57 64 61 52 36 20 19 16 9 1 1 359 359 356 355 353 343 349 353 358 357 12 328 316 321 228 179 203 211 217 224 229 247 264 266
50 47 30 23 28 28 41 56 55 46 47 43 38 29 21 15 8 5 3 4 8 8 8 8 3 354 345 340 335 309 294 281 295 293 233 238 271 258 245 249 257 260 262
60 37 19 22 33 31 40 56 45 46 54 51 40 31 24 18 14 16 20 21 18 15 13 10 4 358 350 344 335 322 298 280 275 270 287 282 271 287 278 268 270 273 273
270 13 11 24 34 32 32 49 44 43 44 36 33 27 21 20 18 19 18 17 18 14 11 6 360 346 337 335 331 317 303 297 289 270 276 289 302 298 280 277 275 279 281